This demonstration page uses our WeatherBlox Daily Observations layout. Learn more.

38.80484, -77.04692

Hourly Observations for April 29, 2019

Temp ( °F °C ) Dew Point ( °F °C ) Humidity (%) Winds ( mph kmh ) Pressure ( in mb ) Visibility ( mi km ) Precip ( " mm )
12:52 am 00:52 Partly Cloudy 51 10.6 39 3.9 64 64 NE 8 13 30.32 1027 10 16.0934 0 0
1:52 am 01:52 Partly Cloudy 50 10 38 3.3 63 63 NNE 8 13 30.32 1027 10 16.0934 0 0
2:52 am 02:52 Mostly Cloudy 50 10 39 3.9 66 66 ENE 8 13 30.33 1027 10 16.0934 0 0
3:52 am 03:52 Mostly Cloudy 48 8.9 40 4.4 74 74 ENE 6 9 30.33 1027 10 16.0934 0 0
4:52 am 04:52 Mostly Cloudy 48 8.9 38 3.3 68 68 NE 7 11 30.35 1028 10 16.0934 0 0
5:52 am 05:52 Mostly Cloudy 48 8.9 39 3.9 71 71 NE 8 13 30.37 1029 10 16.0934 0 0
6:52 am 06:52 Mostly Cloudy 48 8.9 36 2.2 63 63 NE 8 13 30.4 1029 10 16.0934 0 0
7:52 am 07:52 Mostly Cloudy 50 10 36 2.2 59 59 ENE 8 13 30.41 1030 10 16.0934 0 0
8:52 am 08:52 Mostly Cloudy 52 11.1 34 1.1 50 50 NE 8 13 30.43 1031 10 16.0934 0 0
9:52 am 09:52 Mostly Cloudy 53 11.7 32 0 45 45 ENE 9 15 30.41 1030 10 16.0934 0 0
10:52 am 10:52 Cloudy 55 12.8 31 -0.6 40 40 NE 6 9 30.42 1030 10 16.0934 0 0
11:52 am 11:52 Mostly Cloudy 56 13.3 32 0 40 40 Calm 30.42 1030 10 16.0934 0 0
12:52 pm 12:52 Cloudy 60 15.6 31 -0.6 33 33 Calm 30.4 1029 10 16.0934 0 0
1:52 pm 13:52 Mostly Cloudy 60 15.6 33 0.6 36 36 SSW 6 9 30.36 1028 10 16.0934 0 0
2:52 pm 14:52 Cloudy 61 16.1 37 2.8 41 41 S 8 13 30.32 1027 10 16.0934 0 0
3:52 pm 15:52 Cloudy 61 16.1 40 4.4 46 46 SSE 8 13 30.29 1026 10 16.0934 0 0
4:52 pm 16:52 Cloudy 61 16.1 41 5 48 48 S 12 19 30.26 1025 10 16.0934 0 0
5:52 pm 17:52 Cloudy 59 15 44 6.7 58 58 SSW 14 22 30.28 1026 10 16.0934 0 0
6:52 pm 18:52 Cloudy 58 14.4 45 7.2 62 62 S 12 19 30.27 1025 10 16.0934 0 0
7:52 pm 19:52 Cloudy 58 14.4 46 7.8 65 65 SSE 13 20 30.24 1024 10 16.0934 0 0
9:31 pm 21:31 Cloudy 56 13.3 49 9.4 77 77 SSE 10 17 30.24 1024 10 16.0934 0 0
9:52 pm 21:52 Cloudy 56 13.3 50 10 81 81 S 13 20 30.23 1024 10 16.0934 0 0
10:52 pm 22:52 Cloudy with Light Rain 57 13.9 50 10 78 78 S 10 17 30.24 1024 10 16.0934 0 0.0254
11:40 pm 23:40 Cloudy 57 13.9 51 10.6 81 81 S 10 17 30.22 1023 10 16.0934 0 0.0254
11:52 pm 23:52 Cloudy 57 13.9 51 10.6 81 81 S 9 15 30.22 1023 10 16.0934 0 0.0254

Powered by AerisWeather